Temp
67 67 66 66 65 63 62 62 64 62 62 62 62 60 59 57 56 54 53 52 52 51
65 64 64 64 64 64 64 63 63 62 60 58 58 56 55 54 53 53 52 52 52 51
64 64 62 62 59 59 62 63 61 58 57 57 56 56 55 53 52 53 51 51 51 50
61 60 60 59 58 58 59 58 58 58 57 56 56 55 54 52 51 51 50 50 50 49
60 59 58 57 56 57 56 56 57 57 57 57 56 53 53 52 50 50 49 48 49 48
64 59 55 55 55 55 55 54 55 55 55 56 55 54 52 53 51 50 50 48 48 48
60 58 54 54 54 54 54 54 53 54 54 54 54 54 53 52 50 49 48 48 48 49
55 55 54 53 53 54 57 55 57 55 52 52 53 55 52 52 50 49 48 48 49 50
56 56 58 55 57 55 55 53 50 50 50 50 54 52 54 51 48 47 46 46 47 49
59 57 54 54 53 53 48 48 48 48 49 48 48 51 51 52 48 46 45 45 46 49
55 56 57 56 55 49 48 48 48 48 48 48 49 49 50 51 48 47 46 46 45 44
55 55 55 54 53 54 53 48 47 47 47 47 47 48 49 50 50 51 47 47 47 47
58 57 55 53 51 50 48 48 48 48 47 50 47 47 48 49 49 47 52 50 47 50
57 54 53 51 50 48 48 47 47 48 50 49 48 48 48 48 47 47 47 48 50 48
MSLP
1015.04 1015.23 1015.96 1016.23 1016.35 1016.79 1016.89 1016.95 1016.92 1016.86 1016.83 1016.98 1017.14 1017.41 1017.53 1017.90 1018.11 1018.22 1018.28 1018.22 1018.23 1018.17
1015.49 1015.84 1016.39 1016.78 1017.03 1017.33 1017.48 1017.77 1017.64 1017.66 1017.64 1017.65 1017.81 1018.07 1018.39 1018.59 1018.85 1018.84 1018.94 1018.88 1018.75 1018.76
1016.33 1016.69 1017.13 1017.43 1017.78 1018.03 1017.97 1018.12 1018.31 1018.56 1018.55 1018.49 1018.39 1018.60 1018.99 1019.29 1019.61 1019.56 1019.74 1019.72 1019.60 1019.58
1017.14 1017.61 1017.93 1018.20 1018.43 1018.72 1018.88 1018.92 1019.12 1019.31 1019.50 1019.40 1019.33 1019.41 1019.59 1020.05 1020.32 1020.35 1020.52 1020.52 1020.51 1020.55
1017.99 1018.33 1018.76 1019.08 1019.14 1019.36 1019.59 1019.47 1019.59 1019.81 1020.12 1020.18 1020.02 1020.08 1020.31 1020.79 1021.00 1021.05 1021.24 1021.35 1021.14 1021.20
1018.70 1019.22 1019.77 1020.00 1019.87 1020.10 1020.31 1020.33 1020.43 1020.46 1020.71 1020.67 1020.72 1020.90 1021.15 1021.31 1021.40 1021.65 1021.84 1021.79 1021.65 1021.56
1019.35 1020.07 1020.25 1020.52 1020.55 1020.51 1020.89 1021.00 1021.19 1021.24 1021.34 1021.34 1021.36 1021.52 1021.67 1021.82 1021.98 1022.05 1022.36 1022.26 1021.99 1021.75
1020.25 1020.51 1020.86 1021.07 1021.16 1021.49 1021.75 1021.99 1021.96 1021.83 1021.99 1022.05 1022.03 1022.08 1022.07 1022.27 1022.33 1022.61 1022.81 1022.62 1022.36 1022.06
1020.58 1021.02 1021.35 1021.58 1021.93 1022.07 1022.29 1022.50 1022.46 1022.64 1022.67 1022.61 1022.70 1022.56 1022.35 1022.67 1022.83 1023.19 1023.17 1023.12 1022.87 1022.62
1021.08 1021.53 1022.01 1022.23 1022.38 1022.78 1023.02 1022.93 1023.10 1023.24 1023.18 1023.24 1023.10 1022.88 1022.90 1022.92 1023.31 1023.45 1023.45 1023.45 1023.30 1023.05
1021.40 1021.94 1022.25 1022.43 1022.80 1023.14 1023.37 1023.51 1023.45 1023.58 1023.59 1023.60 1023.67 1023.35 1023.10 1023.12 1023.51 1023.60 1023.68 1023.65 1023.63 1023.51
1021.75 1022.18 1022.55 1022.95 1023.15 1023.37 1023.64 1023.74 1023.83 1023.90 1023.96 1023.98 1023.92 1023.63 1023.62 1023.59 1023.81 1023.78 1023.84 1023.84 1023.63 1023.52
1021.93 1022.35 1022.79 1023.05 1023.39 1023.70 1023.83 1023.99 1024.16 1024.27 1024.22 1024.13 1024.10 1023.93 1023.75 1023.79 1023.98 1024.10 1024.09 1023.92 1023.73 1023.40
1022.15 1022.56 1022.85 1023.25 1023.51 1023.79 1024.01 1024.19 1024.35 1024.37 1024.32 1024.23 1024.10 1024.19 1024.06 1024.00 1024.07 1024.11 1024.13 1024.10 1024.00 1023.52
Wind_Speed
9 7 6 6 6 4 5 5 6 8 9 11 10 9 8 7 6 6 6 7 6 4
9 9 7 7 6 5 6 6 8 8 9 9 9 8 7 6 6 7 6 6 6 5
9 9 8 8 7 7 7 8 8 7 7 8 8 8 8 7 6 9 6 5 8 6
9 8 8 8 7 7 7 7 7 6 6 6 7 7 8 8 7 10 7 7 7 8
9 9 8 7 7 7 7 6 6 6 6 7 7 7 8 8 6 8 8 6 7 7
9 8 7 7 7 7 7 7 8 7 6 6 7 8 7 7 7 7 6 6 6 6
9 8 7 6 7 8 6 7 7 7 7 7 6 6 6 6 7 7 6 6 6 6
7 7 7 7 7 7 8 7 7 8 7 6 6 4 6 6 7 7 6 6 6 6
6 6 7 7 7 7 7 7 7 7 7 7 4 8 10 7 7 6 6 6 6 6
6 7 6 6 7 7 6 6 7 6 6 6 4 5 7 9 5 5 6 6 6 6
7 7 6 6 7 6 4 5 4 5 5 5 4 2 7 8 6 5 5 4 4 4
6 6 6 6 5 4 4 3 4 4 5 5 5 7 3 4 3 4 3 2 3 3
5 6 6 6 6 2 2 3 4 3 1 3 4 8 3 3 1 1 2 2 4 7
5 6 6 5 3 4 3 3 3 3 2 2 3 5 7 6 1 3 2 3 3 4
Wind_Direction
87 87 80 80 81 70 69 61 55 62 66 65 65 60 58 55 52 50 48 53 45 45
78 84 91 80 73 71 75 67 67 65 70 67 67 66 64 59 51 53 37 37 42 43
75 74 70 74 69 67 78 75 72 64 69 68 66 65 64 54 31 58 31 28 46 34
73 69 66 66 64 62 63 67 64 64 62 67 69 61 69 60 46 61 47 32 44 40
86 77 74 73 66 63 63 53 64 68 69 75 74 70 75 76 55 65 58 41 50 37
84 78 73 68 67 62 62 49 43 49 59 71 69 74 65 72 70 59 49 45 50 38
84 86 85 81 78 75 73 74 62 52 57 58 75 83 77 72 62 60 46 36 39 40
88 91 91 84 71 65 59 64 71 71 52 52 66 76 79 64 67 56 45 35 28 28
110 96 89 82 89 92 85 65 69 60 68 61 63 82 79 83 72 58 55 44 26 24
105 86 77 88 81 75 77 83 77 71 77 75 68 96 110 98 86 81 69 57 35 29
110 122 118 106 112 106 95 84 79 65 55 64 29 327 126 117 113 91 81 82 66 46
134 123 114 109 113 103 102 80 66 54 43 44 13 24 153 98 54 82 85 27 15 33
126 121 129 132 118 94 99 109 102 96 95 88 51 26 110 81 67 98 327 332 345 322
124 128 130 119 115 132 128 123 147 168 192 118 84 35 66 65 11 280 278 324 332 310